Location: Alsip
(41.6689°N, 87.7387°W)
Time: 22:56:40
(UTC+00:00)

X-37B - Pass Details

Date: 30 July 2021
Orbit: 381 x 393 km, 45.0° (Epoch: 29 August)

Event Time Altitude Azimuth Distance (km) Brightness Sun altitude
Exits shadow 10:00:06 - 210° (SSW) 1,488 3.0 -7.9°
Reaches altitude 10° 10:00:23 10° 208° (SSW) 1,389 2.8 -7.9°
Maximum altitude 10:03:06 27° 148° (SSE) 763 2.1 -7.4°
Drops below altitude 10° 10:05:50 10° 87° (E) 1,398 4.5 -7.0°
Sets 10:08:04 0° 75° (ENE) 2,255 6.2 -6.6°
